Regional Weather Roundup
Issued by NWS Charleston, WV

Home | Current Version | Previous Version | Graphics & Text | Print | Product List | Glossary On
Versions: 1 2 3 4 5 6 7 8 9 10 11 12 13 14 15 16 17 18 19 20 21 22 23 24 25 26
000
ASUS41 KRLX 261610
RWRRLX
West Virginia Regional Weather Roundup
National Weather Service Charleston WV
1200 PM EDT WED JUL 26 2017

Note: "fair" indicates few or no clouds below 12,000 feet with no
significant weather and/or obstructions to visibility.

WVZ003-261700-
Northern Panhandle of West Virginia

CITY           SKY/WX    TMP DP  RH WIND       PRES   REMARKS
WHEELING       MOSUNNY   74  61  63 CALM      30.18F
$$

WVZ009-261700-
Northwest West Virginia

CITY           SKY/WX    TMP DP  RH WIND       PRES   REMARKS
PARKERSBURG    MOSUNNY   74  63  68 VRB3      30.19F
$$

WVZ006-261700-
Western West Virginia

CITY           SKY/WX    TMP DP  RH WIND       PRES   REMARKS
HUNTINGTON     SUNNY     79  62  56 S3        30.17R
$$

WVZ015-261700-
West Central West Virginia

CITY           SKY/WX    TMP DP  RH WIND       PRES   REMARKS
CHARLESTON     MOSUNNY   82  63  52 CALM      30.16F
$$

WVZ022-031-261700-
North Central West Virginia

CITY           SKY/WX    TMP DP  RH WIND       PRES   REMARKS
CLARKSBURG     SUNNY     76  63  64 SW6       30.18S
MORGANTOWN     SUNNY     77  60  55 SW7       30.20R
$$

WVZ025-035-042-045-261700-
Southern West Virginia

CITY           SKY/WX    TMP DP  RH WIND       PRES   REMARKS
BECKLEY        PTSUNNY   72  62  71 SE9       30.25S
LOGAN            N/A     79  64  61 CALM      30.19S
BLUEFIELD      MOSUNNY   69  61  75 S8        30.28R
LEWISBURG      CLOUDY    70  61  72 SE3       30.26S
$$

WVZ047-261700-
Northern Mountains of West Virginia

CITY           SKY/WX    TMP DP  RH WIND       PRES   REMARKS
ELKINS         SUNNY     77  62  59 CALM      30.22R
$$

WVZ052-261700-
Eastern Panhandle of West Virginia

CITY           SKY/WX    TMP DP  RH WIND       PRES   REMARKS
MARTINSBURG    PTSUNNY   75  60  59 SE8       30.20F
PETERSBURG     SUNNY     80  63  55 SE6       30.19F
$$




USA.gov is the U.S. government's official web portal to all federal, state and local government web resources and services.